This demonstration page uses our WeatherBlox Daily Observations layout. Learn more.

Left ArrowRight Arrow

Hourly Observations for November 20, 2019

Temp ( °F °C ) Dew Point ( °F °C ) Humidity (%) Winds ( mph kmh ) Pressure ( in mb ) Visibility ( mi km ) Precip ( " mm )
12:53 am 00:53 Clear 42 5.6 39 3.9 89 89 WSW 3 6 29.99 1016 10 16 0.00 0.00
1:53 am 01:53 Clear 48 8.9 39 3.9 71 71 W 5 7 30.01 1016 10 16 0.00 0.00
2:53 am 02:53 Clear 46 7.8 38 3.3 73 73 WNW 5 7 30.03 1017 10 16 0.00 0.00
3:53 am 03:53 Clear 46 7.8 36 2.2 68 68 NW 3 6 30.05 1018 10 16 0.00 0.00
4:53 am 04:53 Clear 43 6.1 36 2.2 76 76 Calm 30.08 1019 10 16 0.00 0.00
5:53 am 05:53 Clear 40 4.4 36 2.2 86 86 Calm 30.10 1019 10 16 0.00 0.00
6:53 am 06:53 Clear 43 6.1 36 2.2 76 76 Calm 30.13 1020 10 16 0.00 0.00
7:53 am 07:53 Sunny 43 6.1 36 2.2 76 76 Calm 30.17 1022 10 16 0.00 0.00
8:53 am 08:53 Sunny 48 8.9 37 2.8 66 66 NNW 7 11 30.19 1022 10 16 0.00 0.00
9:53 am 09:53 Sunny 52 11.1 38 3.3 59 59 VRB 7 11 30.20 1023 10 16 0.00 0.00
10:53 am 10:53 Sunny 55 12.8 37 2.8 51 51 N 9 15 30.20 1023 10 16 0.00 0.00
11:53 am 11:53 Sunny 59 15 35 1.7 41 41 N 9 15 30.19 1022 10 16 0.00 0.00
12:53 pm 12:53 Sunny 60 15.6 36 2.2 41 41 WNW 8 13 30.18 1022 10 16 0.00 0.00
1:53 pm 13:53 Sunny 62 16.7 35 1.7 37 37 WNW 6 9 30.15 1021 10 16 0.00 0.00
2:53 pm 14:53 Sunny 64 17.8 35 1.7 34 34 NNW 6 9 30.14 1021 10 16 0.00 0.00
3:53 pm 15:53 Sunny 63 17.2 34 1.1 34 34 NW 12 19 30.15 1021 10 16 0.00 0.00
4:53 pm 16:53 Sunny 61 16.1 34 1.1 36 36 WNW 7 11 30.17 1022 10 16 0.00 0.00
5:53 pm 17:53 Clear 58 14.4 33 0.6 39 39 NNW 3 6 30.18 1022 10 16 0.00 0.00
6:53 pm 18:53 Clear 50 10 36 2.2 59 59 Calm 30.20 1023 10 16 0.00 0.00
7:53 pm 19:53 Clear 46 7.8 37 2.8 71 71 Calm 30.22 1023 10 16 0.00 0.00
8:53 pm 20:53 Clear 45 7.2 37 2.8 74 74 Calm 30.24 1024 10 16 0.00 0.00
9:53 pm 21:53 Clear 43 6.1 38 3.3 82 82 Calm 30.24 1024 10 16 0.00 0.00
10:53 pm 22:53 Clear 44 6.7 38 3.3 79 79 Calm 30.22 1024 10 16 0.00 0.00
11:53 pm 23:53 Clear 44 6.7 37 2.8 76 76 Calm 30.22 1023 10 16 0.00 0.00

Powered by AerisWeather